[[{"header":{"parameterUnit":"m.s-1","parameterCategory":1,"la1":30.2992,"la2":30.254,"lo1":-89.0895,"lo2":-89.0443,"dy":0.0025,"dx":0.0025,"nx":19,"ny":19,"refTime":"2026-05-13T09:00:00:Z","depth":0,"parameterNumber":2,"parameterNumberName":"U-component_of_WINDS"},"data":[0,0,0,1.3252,1.3255,1.3405,1.3406,1.36,1.3602,0,0,0,0,0,0,0,0,0,0,0,1.3204,1.3205,1.3251,1.3255,1.3405,1.3406,1.36,1.3602,0,0,0,0,0,0,0,0,0,0,0,1.3203,1.3205,1.3206,1.3256,1.3405,1.3406,1.3599,1.3486,0,0,0,0,0,0,0,0,0,0,1.334,1.3292,1.3204,1.3206,1.3257,1.3405,1.3406,1.3481,1.3493,1.3531,0,1.3561,0,1.3584,1.3615,1.3615,0,0,0,1.3259,1.3281,1.3325,1.3206,1.3258,1.3405,1.3339,1.3488,1.3502,1.3548,1.3563,1.3571,1.3587,1.3616,1.3617,1.3818,1.3819,0,0,1.325,1.323,1.3315,1.3333,1.3306,1.3334,1.3343,1.3496,1.3513,1.3564,1.3575,1.3591,1.3617,1.3619,1.3818,1.3819,0,0,0,1.3224,1.3224,1.3264,1.3325,1.3352,1.3338,1.3349,1.3507,1.3521,1.3578,1.3593,1.3618,1.362,1.3817,1.3818,1.3837,0,0,0,1.3219,1.3209,1.326,1.3249,1.3349,1.343,1.3355,1.351,1.3528,1.3592,1.3618,1.3622,1.3816,1.3817,1.3835,1.385,0,0,0,1.3195,1.3206,1.3226,1.3248,1.3311,1.3428,1.3452,1.3515,1.3538,1.3615,1.3623,1.3815,1.3817,1.3832,1.3846,1.3898,0,0,0,1.3165,1.3241,1.3226,1.3318,1.331,1.3437,1.3451,1.3548,1.3617,1.3619,1.3816,1.3818,1.3832,1.3844,1.3896,1.3939,1.3954,0,0,1.325,1.325,1.3306,1.3297,1.3422,1.3416,1.3546,1.3629,1.3657,1.3764,1.3769,1.3835,1.3846,1.3898,1.4047,1.4058,0,0,0,1.3326,1.3366,1.3404,1.3467,1.3531,1.359,1.3655,1.3687,1.3779,1.3706,1.3868,1.3875,1.3907,1.3928,1.3939,1.3969,1.3826,1.3826,1.3826,1.3417,1.3447,1.3543,1.3592,1.3654,1.3722,1.3777,1.3832,1.3844,1.3882,1.3914,1.4001,1.4025,1.4033,1.4064,1.3939,1.3939,1.3939,1.3939,1.3546,1.3608,1.3624,1.3722,1.3756,1.384,1.3911,1.3918,1.4004,1.3978,1.4007,1.3977,1.4045,1.4074,1.3941,1.394,1.394,1.394,1.394,1.361,1.3645,1.3681,1.3779,1.3852,1.3901,1.3983,1.4011,1.4038,1.4066,1.4106,1.4105,1.411,1.4083,1.4083,1.4084,1.4084,1.4084,1.4084,1.3662,1.3702,1.3766,1.3843,1.389,1.3955,1.4027,1.4075,1.4136,1.415,1.415,1.4162,1.4045,1.4016,1.4089,1.4088,1.4088,1.4087,1.4087,1.3782,1.376,1.3859,1.3905,1.4001,1.4074,1.4108,1.4205,1.4249,1.429,1.4296,1.4204,1.4208,1.42,1.4176,1.4286,1.4286,1.4286,1.4286,1.3837,1.3841,1.395,1.4024,1.4099,1.4142,1.4259,1.4318,1.4376,1.4406,1.4394,1.4365,1.4356,1.4365,1.4354,1.4332,1.448,1.448,1.448,1.3914,1.3927,1.4018,1.4072,1.415,1.4218,1.433,1.4418,1.4479,1.4489,1.4432,1.4423,1.4377,1.4359,1.4366,1.4348,1.4309,0,0]},{"header":{"parameterUnit":"m.s-1","parameterCategory":1,"la1":30.2992,"la2":30.254,"lo1":-89.0895,"lo2":-89.0443,"dy":0.0025,"dx":0.0025,"nx":19,"ny":19,"refTime":"2026-05-13T09:00:00:Z","depth":0,"parameterNumber":3,"parameterNumberName":"V-component_of_WINDS"},"data":[0,0,0,-0.7717,-0.7717,-0.7704,-0.7704,-0.7658,-0.7657,0,0,0,0,0,0,0,0,0,0,0,-0.7704,-0.7703,-0.7717,-0.7716,-0.7704,-0.7704,-0.7658,-0.7657,0,0,0,0,0,0,0,0,0,0,0,-0.7704,-0.7703,-0.7702,-0.7716,-0.7704,-0.7704,-0.7658,-0.7678,0,0,0,0,0,0,0,0,0,0,-0.7696,-0.7667,-0.7704,-0.7702,-0.7716,-0.7704,-0.7704,-0.768,-0.7677,-0.7651,0,-0.7625,0,-0.764,-0.7652,-0.7652,0,0,0,-0.7729,-0.7669,-0.7681,-0.7702,-0.7716,-0.7704,-0.7713,-0.7679,-0.7675,-0.7648,-0.7624,-0.7623,-0.7639,-0.7652,-0.7652,-0.7461,-0.746,0,0,-0.773,-0.7692,-0.7683,-0.7678,-0.7679,-0.7713,-0.7712,-0.7677,-0.7649,-0.7624,-0.7623,-0.7639,-0.7651,-0.7651,-0.7463,-0.7461,0,0,0,-0.7723,-0.7692,-0.7706,-0.7679,-0.7679,-0.7713,-0.7712,-0.7651,-0.7658,-0.7623,-0.7638,-0.7651,-0.765,-0.7465,-0.7462,-0.7349,0,0,0,-0.7724,-0.7688,-0.7705,-0.7682,-0.7679,-0.7665,-0.7685,-0.7661,-0.7658,-0.7638,-0.7651,-0.7649,-0.7466,-0.7463,-0.7356,-0.7301,0,0,0,-0.7711,-0.7687,-0.7679,-0.768,-0.7673,-0.7666,-0.7672,-0.7661,-0.7666,-0.7652,-0.7649,-0.7468,-0.7464,-0.7362,-0.7311,-0.7237,0,0,0,-0.7685,-0.7581,-0.7677,-0.7567,-0.7673,-0.7598,-0.7673,-0.7619,-0.7594,-0.7651,-0.7466,-0.7463,-0.7364,-0.7318,-0.7243,-0.7165,-0.713,0,0,-0.7532,-0.7561,-0.75,-0.7585,-0.7482,-0.7603,-0.7484,-0.7497,-0.7531,-0.7482,-0.7478,-0.7354,-0.7312,-0.7238,-0.6954,-0.6926,0,0,0,-0.7438,-0.7393,-0.7374,-0.7348,-0.7356,-0.7356,-0.7392,-0.7396,-0.7357,-0.7498,-0.7311,-0.7287,-0.7245,-0.7209,-0.7185,-0.715,-0.7446,-0.7446,-0.7446,-0.7166,-0.7214,-0.7115,-0.7161,-0.7135,-0.7172,-0.7154,-0.7167,-0.7225,-0.718,-0.7164,-0.6986,-0.6942,-0.6924,-0.6887,-0.7131,-0.713,-0.713,-0.7129,-0.6943,-0.6885,-0.6964,-0.6895,-0.6947,-0.689,-0.6921,-0.6964,-0.6917,-0.7002,-0.6968,-0.7052,-0.6892,-0.6862,-0.7121,-0.7123,-0.7124,-0.7125,-0.7125,-0.6766,-0.6746,-0.6754,-0.672,-0.6689,-0.6742,-0.6692,-0.6743,-0.679,-0.6756,-0.6743,-0.6744,-0.6749,-0.6747,-0.6747,-0.6746,-0.6745,-0.6745,-0.6745,-0.6576,-0.659,-0.6542,-0.6541,-0.653,-0.6522,-0.6559,-0.6549,-0.6551,-0.6591,-0.6592,-0.665,-0.6869,-0.692,-0.6735,-0.6737,-0.6738,-0.6739,-0.6739,-0.6324,-0.639,-0.6315,-0.6304,-0.6306,-0.627,-0.6337,-0.6312,-0.6312,-0.6285,-0.6353,-0.6508,-0.6541,-0.656,-0.6602,-0.6346,-0.6346,-0.6346,-0.6346,-0.617,-0.6194,-0.6128,-0.6106,-0.6091,-0.6144,-0.6056,-0.6083,-0.6122,-0.6124,-0.617,-0.6233,-0.625,-0.6272,-0.6298,-0.6337,-0.6019,-0.6019,-0.6019,-0.6016,-0.604,-0.5955,-0.5995,-0.6,-0.6003,-0.5921,-0.5892,-0.5951,-0.6007,-0.6126,-0.614,-0.6241,-0.6272,-0.6326,-0.6364,-0.6439,0,0]}]]